Location: Kellogg
(38.0159°N, 90.0546°W)
Time: 07:00:29
(UTC+00:00)

S-56A Canister/Altair - Pass Details

Date: 21 September 2024
Orbit: 636 x 2487 km, 38.9° (Epoch: 09 October)

Event Time Altitude Azimuth Distance (km) Brightness Sun altitude
Rises 06:45:30 0° 268° (W) 4,581 - -49.7°
Reaches altitude 10° 06:51:17 10° 240° (WSW) 4,054 - -49.2°
Maximum altitude 06:54:43 12° 221° (SW) 4,139 - -49.0°
Drops below altitude 10° 06:58:29 10° 203° (SSW) 4,529 - -48.7°
Sets 07:06:17 0° 177° (S) 5,908 - -48.0°
